owner,sensor,date,latitude,longitude,air_temperature,qcFlag 
DISL,ioos:station:DISL:MHPA:1,2010-12-02T00:00:00Z,30.6671,-87.9365,10.29,1111122 
DISL,ioos:station:DISL:MHPA:1,2010-12-02T00:30:00Z,30.6671,-87.9365,10.12,1111122 
DISL,ioos:station:DISL:MHPA:1,2010-12-02T01:00:00Z,30.6671,-87.9365,8.65,1111122 
DISL,ioos:station:DISL:MHPA:1,2010-12-02T01:30:00Z,30.6671,-87.9365,8.76,1111122 
DISL,ioos:station:DISL:MHPA:1,2010-12-02T02:00:00Z,30.6671,-87.9365,7.97,1111122 
DISL,ioos:station:DISL:MHPA:1,2010-12-02T02:30:00Z,30.6671,-87.9365,7.62,1111122 
DISL,ioos:station:DISL:MHPA:1,2010-12-02T03:00:00Z,30.6671,-87.9365,6.912,1111122 
DISL,ioos:station:DISL:MHPA:1,2010-12-02T03:30:00Z,30.6671,-87.9365,6.583,1111122 
DISL,ioos:station:DISL:MHPA:1,2010-12-02T04:00:00Z,30.6671,-87.9365,6.718,1111122 
DISL,ioos:station:DISL:MHPA:1,2010-12-02T04:30:00Z,30.6671,-87.9365,6.351,1111122 
DISL,ioos:station:DISL:MHPA:1,2010-12-02T05:00:00Z,30.6671,-87.9365,6.36,1111122 
DISL,ioos:station:DISL:MHPA:1,2010-12-02T05:30:00Z,30.6671,-87.9365,6.149,1111122 
DISL,ioos:station:DISL:MHPA:1,2010-12-02T06:00:00Z,30.6671,-87.9365,5.858,1111122 
DISL,ioos:station:DISL:MHPA:1,2010-12-02T06:30:00Z,30.6671,-87.9365,5.917,1111122 
DISL,ioos:station:DISL:MHPA:1,2010-12-02T07:00:00Z,30.6671,-87.9365,6.077,1111122 
DISL,ioos:station:DISL:MHPA:1,2010-12-02T07:30:00Z,30.6671,-87.9365,5.714,1111122 
DISL,ioos:station:DISL:MHPA:1,2010-12-02T08:00:00Z,30.6671,-87.9365,5.503,1111122 
DISL,ioos:station:DISL:MHPA:1,2010-12-02T08:30:00Z,30.6671,-87.9365,5.349,1111122 
DISL,ioos:station:DISL:MHPA:1,2010-12-02T09:00:00Z,30.6671,-87.9365,4.803,1111122 
DISL,ioos:station:DISL:MHPA:1,2010-12-02T09:30:00Z,30.6671,-87.9365,4.697,1111122 
DISL,ioos:station:DISL:MHPA:1,2010-12-02T10:00:00Z,30.6671,-87.9365,4.63,1111122 
DISL,ioos:station:DISL:MHPA:1,2010-12-02T10:30:00Z,30.6671,-87.9365,4.487,1111122 
DISL,ioos:station:DISL:MHPA:1,2010-12-02T11:00:00Z,30.6671,-87.9365,4.555,1111122 
DISL,ioos:station:DISL:MHPA:1,2010-12-02T11:30:00Z,30.6671,-87.9365,4.4,1111122 
DISL,ioos:station:DISL:MHPA:1,2010-12-02T12:00:00Z,30.6671,-87.9365,3.693,1111122 
DISL,ioos:station:DISL:MHPA:1,2010-12-02T12:30:00Z,30.6671,-87.9365,3.695,1111122 
DISL,ioos:station:DISL:MHPA:1,2010-12-02T13:00:00Z,30.6671,-87.9365,5.241,1111122 
DISL,ioos:station:DISL:MHPA:1,2010-12-02T13:30:00Z,30.6671,-87.9365,6.337,1111122 
DISL,ioos:station:DISL:MHPA:1,2010-12-02T14:00:00Z,30.6671,-87.9365,7.49,1111122 
DISL,ioos:station:DISL:MHPA:1,2010-12-02T14:30:00Z,30.6671,-87.9365,7.81,1111122 
DISL,ioos:station:DISL:MHPA:1,2010-12-02T15:00:00Z,30.6671,-87.9365,9.58,1111122 
DISL,ioos:station:DISL:MHPA:1,2010-12-02T15:30:00Z,30.6671,-87.9365,10.03,1111122 
DISL,ioos:station:DISL:MHPA:1,2010-12-02T16:00:00Z,30.6671,-87.9365,10.5,1111122 
DISL,ioos:station:DISL:MHPA:1,2010-12-02T16:30:00Z,30.6671,-87.9365,11.01,1111122 
DISL,ioos:station:DISL:MHPA:1,2010-12-02T17:00:00Z,30.6671,-87.9365,11.09,1111122 
DISL,ioos:station:DISL:MHPA:1,2010-12-02T17:30:00Z,30.6671,-87.9365,11.92,1111122 
DISL,ioos:station:DISL:MHPA:1,2010-12-02T18:00:00Z,30.6671,-87.9365,12.3,1111122 
DISL,ioos:station:DISL:MHPA:1,2010-12-02T18:30:00Z,30.6671,-87.9365,12.55,1111122 
DISL,ioos:station:DISL:MHPA:1,2010-12-02T19:00:00Z,30.6671,-87.9365,13.21,1111122 
DISL,ioos:station:DISL:MHPA:1,2010-12-02T19:30:00Z,30.6671,-87.9365,13.64,1111122 
DISL,ioos:station:DISL:MHPA:1,2010-12-02T20:00:00Z,30.6671,-87.9365,14.15,1111122 
DISL,ioos:station:DISL:MHPA:1,2010-12-02T20:30:00Z,30.6671,-87.9365,14.69,1111122 
DISL,ioos:station:DISL:MHPA:1,2010-12-02T21:00:00Z,30.6671,-87.9365,15.06,1111122 
DISL,ioos:station:DISL:MHPA:1,2010-12-02T21:30:00Z,30.6671,-87.9365,14.47,1111122 
DISL,ioos:station:DISL:MHPA:1,2010-12-02T22:00:00Z,30.6671,-87.9365,14.31,1111122 
DISL,ioos:station:DISL:MHPA:1,2010-12-02T22:30:00Z,30.6671,-87.9365,13.82,1111122 
DISL,ioos:station:DISL:MHPA:1,2010-12-02T23:00:00Z,30.6671,-87.9365,13.37,1111122 
DISL,ioos:station:DISL:MHPA:1,2010-12-02T23:30:00Z,30.6671,-87.9365,13.61,1111122 
DISL,ioos:station:DISL:MHPA:1,2010-12-03T00:00:00Z,30.6671,-87.9365,13.57,1111122 
DISL,ioos:station:DISL:MHPA:1,2010-12-03T00:30:00Z,30.6671,-87.9365,13.49,1111122 
DISL,ioos:station:DISL:MHPA:1,2010-12-03T01:00:00Z,30.6671,-87.9365,13.49,1111122 
DISL,ioos:station:DISL:MHPA:1,2010-12-03T01:30:00Z,30.6671,-87.9365,13.45,1111122 
DISL,ioos:station:DISL:MHPA:1,2010-12-03T02:00:00Z,30.6671,-87.9365,13.29,1111122 
DISL,ioos:station:DISL:MHPA:1,2010-12-03T02:30:00Z,30.6671,-87.9365,12.98,1111122 
DISL,ioos:station:DISL:MHPA:1,2010-12-03T03:00:00Z,30.6671,-87.9365,12.68,1111122 
DISL,ioos:station:DISL:MHPA:1,2010-12-03T03:30:00Z,30.6671,-87.9365,12.28,1111122 
DISL,ioos:station:DISL:MHPA:1,2010-12-03T04:00:00Z,30.6671,-87.9365,9.82,1111122 
DISL,ioos:station:DISL:MHPA:1,2010-12-03T04:30:00Z,30.6671,-87.9365,9.79,1111122 
DISL,ioos:station:DISL:MHPA:1,2010-12-03T05:00:00Z,30.6671,-87.9365,10.1,1111122 
DISL,ioos:station:DISL:MHPA:1,2010-12-03T05:30:00Z,30.6671,-87.9365,10.39,1111122 
DISL,ioos:station:DISL:MHPA:1,2010-12-03T06:00:00Z,30.6671,-87.9365,12.35,1111122 
DISL,ioos:station:DISL:MHPA:1,2010-12-03T06:30:00Z,30.6671,-87.9365,10.38,1111122 
DISL,ioos:station:DISL:MHPA:1,2010-12-03T07:00:00Z,30.6671,-87.9365,8.94,1111122 
DISL,ioos:station:DISL:MHPA:1,2010-12-03T07:30:00Z,30.6671,-87.9365,11.45,1111122 
DISL,ioos:station:DISL:MHPA:1,2010-12-03T08:00:00Z,30.6671,-87.9365,8.98,1111122 
DISL,ioos:station:DISL:MHPA:1,2010-12-03T08:30:00Z,30.6671,-87.9365,8.48,1111122 
DISL,ioos:station:DISL:MHPA:1,2010-12-03T09:00:00Z,30.6671,-87.9365,7.88,1111122 
DISL,ioos:station:DISL:MHPA:1,2010-12-03T09:30:00Z,30.6671,-87.9365,7.82,1111122 
DISL,ioos:station:DISL:MHPA:1,2010-12-03T10:00:00Z,30.6671,-87.9365,7.84,1111122 
DISL,ioos:station:DISL:MHPA:1,2010-12-03T10:30:00Z,30.6671,-87.9365,7.72,1111122 
DISL,ioos:station:DISL:MHPA:1,2010-12-03T11:00:00Z,30.6671,-87.9365,9.25,1111122 
DISL,ioos:station:DISL:MHPA:1,2010-12-03T11:30:00Z,30.6671,-87.9365,8.28,1111122 
DISL,ioos:station:DISL:MHPA:1,2010-12-03T12:00:00Z,30.6671,-87.9365,7.36,1111122 
DISL,ioos:station:DISL:MHPA:1,2010-12-03T12:30:00Z,30.6671,-87.9365,7.37,1111122 
DISL,ioos:station:DISL:MHPA:1,2010-12-03T13:00:00Z,30.6671,-87.9365,9.09,1111122 
DISL,ioos:station:DISL:MHPA:1,2010-12-03T13:30:00Z,30.6671,-87.9365,10.4,1111122 
DISL,ioos:station:DISL:MHPA:1,2010-12-03T14:00:00Z,30.6671,-87.9365,11.53,1111122 
DISL,ioos:station:DISL:MHPA:1,2010-12-03T14:30:00Z,30.6671,-87.9365,11.84,1111122 
DISL,ioos:station:DISL:MHPA:1,2010-12-03T15:00:00Z,30.6671,-87.9365,13.21,1111122 
DISL,ioos:station:DISL:MHPA:1,2010-12-03T15:30:00Z,30.6671,-87.9365,13.47,1111122 
DISL,ioos:station:DISL:MHPA:1,2010-12-03T16:00:00Z,30.6671,-87.9365,14.59,1111122 
DISL,ioos:station:DISL:MHPA:1,2010-12-03T16:30:00Z,30.6671,-87.9365,14.53,1111122 
DISL,ioos:station:DISL:MHPA:1,2010-12-03T17:00:00Z,30.6671,-87.9365,15.29,1111122 
DISL,ioos:station:DISL:MHPA:1,2010-12-03T17:30:00Z,30.6671,-87.9365,15.63,1111122 
DISL,ioos:station:DISL:MHPA:1,2010-12-03T18:00:00Z,30.6671,-87.9365,15.69,1111122 
DISL,ioos:station:DISL:MHPA:1,2010-12-03T18:30:00Z,30.6671,-87.9365,15.81,1111122 
DISL,ioos:station:DISL:MHPA:1,2010-12-03T19:00:00Z,30.6671,-87.9365,15.96,1111122 
DISL,ioos:station:DISL:MHPA:1,2010-12-03T19:30:00Z,30.6671,-87.9365,15.88,1111122 
DISL,ioos:station:DISL:MHPA:1,2010-12-03T20:00:00Z,30.6671,-87.9365,16.01,1111122 
DISL,ioos:station:DISL:MHPA:1,2010-12-03T20:30:00Z,30.6671,-87.9365,16.11,1111122 
DISL,ioos:station:DISL:MHPA:1,2010-12-03T21:00:00Z,30.6671,-87.9365,16.15,1111122 
DISL,ioos:station:DISL:MHPA:1,2010-12-03T21:30:00Z,30.6671,-87.9365,16.03,1111122 
DISL,ioos:station:DISL:MHPA:1,2010-12-03T22:00:00Z,30.6671,-87.9365,15.97,1111122 
DISL,ioos:station:DISL:MHPA:1,2010-12-03T22:30:00Z,30.6671,-87.9365,15.62,1111122 
DISL,ioos:station:DISL:MHPA:1,2010-12-03T23:00:00Z,30.6671,-87.9365,15.68,1111122 
DISL,ioos:station:DISL:MHPA:1,2010-12-03T23:30:00Z,30.6671,-87.9365,15.9,1111122 
DISL,ioos:station:DISL:MHPA:1,2010-12-04T00:00:00Z,30.6671,-87.9365,15.46,1111122 
DISL,ioos:station:DISL:MHPA:1,2010-12-04T00:30:00Z,30.6671,-87.9365,15.52,1111122 
DISL,ioos:station:DISL:MHPA:1,2010-12-04T01:00:00Z,30.6671,-87.9365,15.39,1111122 
DISL,ioos:station:DISL:MHPA:1,2010-12-04T01:30:00Z,30.6671,-87.9365,15.15,1111122 
DISL,ioos:station:DISL:MHPA:1,2010-12-04T02:00:00Z,30.6671,-87.9365,15.19,1111122 
DISL,ioos:station:DISL:MHPA:1,2010-12-04T02:30:00Z,30.6671,-87.9365,15.09,1111122 
DISL,ioos:station:DISL:MHPA:1,2010-12-04T03:00:00Z,30.6671,-87.9365,15.18,1111122 
DISL,ioos:station:DISL:MHPA:1,2010-12-04T03:30:00Z,30.6671,-87.9365,15.18,1111122 
DISL,ioos:station:DISL:MHPA:1,2010-12-04T04:00:00Z,30.6671,-87.9365,14.93,1111122 
DISL,ioos:station:DISL:MHPA:1,2010-12-04T04:30:00Z,30.6671,-87.9365,15.05,1111122 
DISL,ioos:station:DISL:MHPA:1,2010-12-04T05:00:00Z,30.6671,-87.9365,15.2,1111122 
DISL,ioos:station:DISL:MHPA:1,2010-12-04T05:30:00Z,30.6671,-87.9365,14.93,1111122 
DISL,ioos:station:DISL:MHPA:1,2010-12-04T06:00:00Z,30.6671,-87.9365,14.89,1111122 
DISL,ioos:station:DISL:MHPA:1,2010-12-04T06:30:00Z,30.6671,-87.9365,14.95,1111122 
DISL,ioos:station:DISL:MHPA:1,2010-12-04T07:00:00Z,30.6671,-87.9365,14.72,1111122 
DISL,ioos:station:DISL:MHPA:1,2010-12-04T07:30:00Z,30.6671,-87.9365,14.71,1111122 
DISL,ioos:station:DISL:MHPA:1,2010-12-04T08:00:00Z,30.6671,-87.9365,14.63,1111122 
DISL,ioos:station:DISL:MHPA:1,2010-12-04T08:30:00Z,30.6671,-87.9365,14.65,1111122 
DISL,ioos:station:DISL:MHPA:1,2010-12-04T09:00:00Z,30.6671,-87.9365,14.87,1111122 
DISL,ioos:station:DISL:MHPA:1,2010-12-04T09:30:00Z,30.6671,-87.9365,14.74,1111122 
DISL,ioos:station:DISL:MHPA:1,2010-12-04T10:00:00Z,30.6671,-87.9365,14.09,1111122 
DISL,ioos:station:DISL:MHPA:1,2010-12-04T10:30:00Z,30.6671,-87.9365,14.3,1111122 
DISL,ioos:station:DISL:MHPA:1,2010-12-04T11:00:00Z,30.6671,-87.9365,13.84,1111122 
DISL,ioos:station:DISL:MHPA:1,2010-12-04T11:30:00Z,30.6671,-87.9365,12.79,1111122 
DISL,ioos:station:DISL:MHPA:1,2010-12-04T12:00:00Z,30.6671,-87.9365,12.8,1111122 
DISL,ioos:station:DISL:MHPA:1,2010-12-04T12:30:00Z,30.6671,-87.9365,12.85,1111122 
DISL,ioos:station:DISL:MHPA:1,2010-12-04T13:00:00Z,30.6671,-87.9365,13.63,1111122 
DISL,ioos:station:DISL:MHPA:1,2010-12-04T13:30:00Z,30.6671,-87.9365,14.25,1111122 
DISL,ioos:station:DISL:MHPA:1,2010-12-04T14:00:00Z,30.6671,-87.9365,15.42,1111122 
DISL,ioos:station:DISL:MHPA:1,2010-12-04T14:30:00Z,30.6671,-87.9365,15.43,1111122 
DISL,ioos:station:DISL:MHPA:1,2010-12-04T15:00:00Z,30.6671,-87.9365,15.97,1111122 
DISL,ioos:station:DISL:MHPA:1,2010-12-04T15:30:00Z,30.6671,-87.9365,16.32,1111122 
DISL,ioos:station:DISL:MHPA:1,2010-12-04T16:00:00Z,30.6671,-87.9365,16.66,1111122 
DISL,ioos:station:DISL:MHPA:1,2010-12-04T16:30:00Z,30.6671,-87.9365,17.12,1111122 
DISL,ioos:station:DISL:MHPA:1,2010-12-04T17:00:00Z,30.6671,-87.9365,17.2,1111122 
DISL,ioos:station:DISL:MHPA:1,2010-12-04T17:30:00Z,30.6671,-87.9365,17.85,1111122 
DISL,ioos:station:DISL:MHPA:1,2010-12-04T18:00:00Z,30.6671,-87.9365,18.3,1111122 
DISL,ioos:station:DISL:MHPA:1,2010-12-04T18:30:00Z,30.6671,-87.9365,18.54,1111122 
DISL,ioos:station:DISL:MHPA:1,2010-12-04T19:00:00Z,30.6671,-87.9365,18.26,1111122 
DISL,ioos:station:DISL:MHPA:1,2010-12-04T19:30:00Z,30.6671,-87.9365,18.26,1111122 
DISL,ioos:station:DISL:MHPA:1,2010-12-04T20:00:00Z,30.6671,-87.9365,18.56,1111122 
DISL,ioos:station:DISL:MHPA:1,2010-12-04T20:30:00Z,30.6671,-87.9365,18.44,1111122 
DISL,ioos:station:DISL:MHPA:1,2010-12-04T21:00:00Z,30.6671,-87.9365,18.38,1111122 
DISL,ioos:station:DISL:MHPA:1,2010-12-04T21:30:00Z,30.6671,-87.9365,18.86,1111122 
DISL,ioos:station:DISL:MHPA:1,2010-12-04T22:00:00Z,30.6671,-87.9365,18.71,1111122 
DISL,ioos:station:DISL:MHPA:1,2010-12-04T22:30:00Z,30.6671,-87.9365,18.35,1111122 
DISL,ioos:station:DISL:MHPA:1,2010-12-04T23:00:00Z,30.6671,-87.9365,18.45,1111122 
DISL,ioos:station:DISL:MHPA:1,2010-12-04T23:30:00Z,30.6671,-87.9365,18.18,1111122 
DISL,ioos:station:DISL:MHPA:1,2010-12-05T00:00:00Z,30.6671,-87.9365,17.93,1111122 
DISL,ioos:station:DISL:MHPA:1,2010-12-05T00:30:00Z,30.6671,-87.9365,17.75,1111122 
DISL,ioos:station:DISL:MHPA:1,2010-12-05T01:00:00Z,30.6671,-87.9365,17.53,1111122 
DISL,ioos:station:DISL:MHPA:1,2010-12-05T01:30:00Z,30.6671,-87.9365,17.36,1111122 
DISL,ioos:station:DISL:MHPA:1,2010-12-05T02:00:00Z,30.6671,-87.9365,17.2,1111122 
DISL,ioos:station:DISL:MHPA:1,2010-12-05T02:30:00Z,30.6671,-87.9365,17.22,1111122 
DISL,ioos:station:DISL:MHPA:1,2010-12-05T03:00:00Z,30.6671,-87.9365,17.13,1111122 
DISL,ioos:station:DISL:MHPA:1,2010-12-05T03:30:00Z,30.6671,-87.9365,17.27,1111122 
DISL,ioos:station:DISL:MHPA:1,2010-12-05T04:00:00Z,30.6671,-87.9365,16.88,1111122 
DISL,ioos:station:DISL:MHPA:1,2010-12-05T04:30:00Z,30.6671,-87.9365,16.91,1111122 
DISL,ioos:station:DISL:MHPA:1,2010-12-05T05:00:00Z,30.6671,-87.9365,16.67,1111122 
DISL,ioos:station:DISL:MHPA:1,2010-12-05T05:30:00Z,30.6671,-87.9365,16.7,1111122 
DISL,ioos:station:DISL:MHPA:1,2010-12-05T06:00:00Z,30.6671,-87.9365,16.04,1111122 
DISL,ioos:station:DISL:MHPA:1,2010-12-05T06:30:00Z,30.6671,-87.9365,15.58,1111122 
DISL,ioos:station:DISL:MHPA:1,2010-12-05T07:00:00Z,30.6671,-87.9365,14.8,1111122 
DISL,ioos:station:DISL:MHPA:1,2010-12-05T07:30:00Z,30.6671,-87.9365,13.84,1111122 
DISL,ioos:station:DISL:MHPA:1,2010-12-05T08:00:00Z,30.6671,-87.9365,12.83,1111122 
DISL,ioos:station:DISL:MHPA:1,2010-12-05T08:30:00Z,30.6671,-87.9365,12.13,1111122 
DISL,ioos:station:DISL:MHPA:1,2010-12-05T09:00:00Z,30.6671,-87.9365,11.64,1111122 
DISL,ioos:station:DISL:MHPA:1,2010-12-05T09:30:00Z,30.6671,-87.9365,11.0,1111122 
DISL,ioos:station:DISL:MHPA:1,2010-12-05T10:00:00Z,30.6671,-87.9365,9.96,1111122 
DISL,ioos:station:DISL:MHPA:1,2010-12-05T10:30:00Z,30.6671,-87.9365,8.92,1111122 
DISL,ioos:station:DISL:MHPA:1,2010-12-05T11:00:00Z,30.6671,-87.9365,8.1,1111122 
DISL,ioos:station:DISL:MHPA:1,2010-12-05T11:30:00Z,30.6671,-87.9365,7.13,1111122 
DISL,ioos:station:DISL:MHPA:1,2010-12-05T12:00:00Z,30.6671,-87.9365,6.431,1111122 
DISL,ioos:station:DISL:MHPA:1,2010-12-05T12:30:00Z,30.6671,-87.9365,5.871,1111122 
DISL,ioos:station:DISL:MHPA:1,2010-12-05T13:00:00Z,30.6671,-87.9365,6.064,1111122 
DISL,ioos:station:DISL:MHPA:1,2010-12-05T13:30:00Z,30.6671,-87.9365,6.132,1111122 
DISL,ioos:station:DISL:MHPA:1,2010-12-05T14:00:00Z,30.6671,-87.9365,6.209,1111122 
DISL,ioos:station:DISL:MHPA:1,2010-12-05T14:30:00Z,30.6671,-87.9365,6.479,1111122 
DISL,ioos:station:DISL:MHPA:1,2010-12-05T15:00:00Z,30.6671,-87.9365,6.324,1111122 
DISL,ioos:station:DISL:MHPA:1,2010-12-05T15:30:00Z,30.6671,-87.9365,6.835,1111122 
DISL,ioos:station:DISL:MHPA:1,2010-12-05T16:00:00Z,30.6671,-87.9365,7.24,1111122 
DISL,ioos:station:DISL:MHPA:1,2010-12-05T16:30:00Z,30.6671,-87.9365,7.92,1111122 
DISL,ioos:station:DISL:MHPA:1,2010-12-05T17:00:00Z,30.6671,-87.9365,8.07,1111122 
DISL,ioos:station:DISL:MHPA:1,2010-12-05T17:30:00Z,30.6671,-87.9365,8.63,1111122 
DISL,ioos:station:DISL:MHPA:1,2010-12-05T18:00:00Z,30.6671,-87.9365,8.94,1111122 
DISL,ioos:station:DISL:MHPA:1,2010-12-05T18:30:00Z,30.6671,-87.9365,9.26,1111122 
DISL,ioos:station:DISL:MHPA:1,2010-12-05T19:00:00Z,30.6671,-87.9365,9.8,1111122 
DISL,ioos:station:DISL:MHPA:1,2010-12-05T19:30:00Z,30.6671,-87.9365,10.37,1111122 
DISL,ioos:station:DISL:MHPA:1,2010-12-05T20:00:00Z,30.6671,-87.9365,10.29,1111122 
DISL,ioos:station:DISL:MHPA:1,2010-12-05T20:30:00Z,30.6671,-87.9365,10.3,1111122 
DISL,ioos:station:DISL:MHPA:1,2010-12-05T21:00:00Z,30.6671,-87.9365,10.3,1111122 
DISL,ioos:station:DISL:MHPA:1,2010-12-05T21:30:00Z,30.6671,-87.9365,9.81,1111122 
DISL,ioos:station:DISL:MHPA:1,2010-12-05T22:00:00Z,30.6671,-87.9365,9.92,1111122 
DISL,ioos:station:DISL:MHPA:1,2010-12-05T22:30:00Z,30.6671,-87.9365,8.64,1111122 
DISL,ioos:station:DISL:MHPA:1,2010-12-05T23:00:00Z,30.6671,-87.9365,8.18,1111122 
DISL,ioos:station:DISL:MHPA:1,2010-12-05T23:30:00Z,30.6671,-87.9365,7.64,1111122 
DISL,ioos:station:DISL:MHPA:1,2010-12-06T00:00:00Z,30.6671,-87.9365,7.09,1111122 
DISL,ioos:station:DISL:MHPA:1,2010-12-06T00:30:00Z,30.6671,-87.9365,6.748,1111122 
DISL,ioos:station:DISL:MHPA:1,2010-12-06T01:00:00Z,30.6671,-87.9365,6.362,1111122 
DISL,ioos:station:DISL:MHPA:1,2010-12-06T01:30:00Z,30.6671,-87.9365,6.331,1111122 
DISL,ioos:station:DISL:MHPA:1,2010-12-06T02:00:00Z,30.6671,-87.9365,6.236,1111122 
DISL,ioos:station:DISL:MHPA:1,2010-12-06T02:30:00Z,30.6671,-87.9365,6.006,1111122 
DISL,ioos:station:DISL:MHPA:1,2010-12-06T03:00:00Z,30.6671,-87.9365,5.486,1111122 
DISL,ioos:station:DISL:MHPA:1,2010-12-06T03:30:00Z,30.6671,-87.9365,5.085,1111122 
DISL,ioos:station:DISL:MHPA:1,2010-12-06T04:00:00Z,30.6671,-87.9365,4.813,1111122 
DISL,ioos:station:DISL:MHPA:1,2010-12-06T04:30:00Z,30.6671,-87.9365,4.565,1111122 
DISL,ioos:station:DISL:MHPA:1,2010-12-06T05:00:00Z,30.6671,-87.9365,4.376,1111122 
DISL,ioos:station:DISL:MHPA:1,2010-12-06T05:30:00Z,30.6671,-87.9365,3.897,1111122 
DISL,ioos:station:DISL:MHPA:1,2010-12-06T06:00:00Z,30.6671,-87.9365,3.514,1111122 
DISL,ioos:station:DISL:MHPA:1,2010-12-06T06:30:00Z,30.6671,-87.9365,3.17,1111122 
DISL,ioos:station:DISL:MHPA:1,2010-12-06T07:00:00Z,30.6671,-87.9365,2.81,1111122 
DISL,ioos:station:DISL:MHPA:1,2010-12-06T07:30:00Z,30.6671,-87.9365,2.514,1111122 
DISL,ioos:station:DISL:MHPA:1,2010-12-06T08:00:00Z,30.6671,-87.9365,2.362,1111122 
DISL,ioos:station:DISL:MHPA:1,2010-12-06T08:30:00Z,30.6671,-87.9365,2.057,1111122 
DISL,ioos:station:DISL:MHPA:1,2010-12-06T09:00:00Z,30.6671,-87.9365,1.772,1111122 
DISL,ioos:station:DISL:MHPA:1,2010-12-06T09:30:00Z,30.6671,-87.9365,1.325,1111122 
DISL,ioos:station:DISL:MHPA:1,2010-12-06T10:00:00Z,30.6671,-87.9365,0.909,1111122 
DISL,ioos:station:DISL:MHPA:1,2010-12-06T10:30:00Z,30.6671,-87.9365,0.642,1111122 
DISL,ioos:station:DISL:MHPA:1,2010-12-06T11:00:00Z,30.6671,-87.9365,0.357,1111122 
DISL,ioos:station:DISL:MHPA:1,2010-12-06T11:30:00Z,30.6671,-87.9365,0.215,1111122 
DISL,ioos:station:DISL:MHPA:1,2010-12-06T13:30:00Z,30.6671,-87.9365,0.461,1111122 
DISL,ioos:station:DISL:MHPA:1,2010-12-06T14:00:00Z,30.6671,-87.9365,0.945,1111122 
DISL,ioos:station:DISL:MHPA:1,2010-12-06T14:30:00Z,30.6671,-87.9365,1.602,1111122 
DISL,ioos:station:DISL:MHPA:1,2010-12-06T15:00:00Z,30.6671,-87.9365,2.426,1111122 
DISL,ioos:station:DISL:MHPA:1,2010-12-06T15:30:00Z,30.6671,-87.9365,2.961,1111122 
DISL,ioos:station:DISL:MHPA:1,2010-12-06T16:00:00Z,30.6671,-87.9365,3.631,1111122 
DISL,ioos:station:DISL:MHPA:1,2010-12-06T16:30:00Z,30.6671,-87.9365,4.243,1111122 
DISL,ioos:station:DISL:MHPA:1,2010-12-06T17:00:00Z,30.6671,-87.9365,4.998,1111122 
DISL,ioos:station:DISL:MHPA:1,2010-12-06T17:30:00Z,30.6671,-87.9365,5.747,1111122 
DISL,ioos:station:DISL:MHPA:1,2010-12-06T18:00:00Z,30.6671,-87.9365,6.285,1111122 
DISL,ioos:station:DISL:MHPA:1,2010-12-06T18:30:00Z,30.6671,-87.9365,7.22,1111122 
DISL,ioos:station:DISL:MHPA:1,2010-12-06T19:00:00Z,30.6671,-87.9365,8.03,1111122 
DISL,ioos:station:DISL:MHPA:1,2010-12-06T19:30:00Z,30.6671,-87.9365,7.43,1111122 
DISL,ioos:station:DISL:MHPA:1,2010-12-06T20:00:00Z,30.6671,-87.9365,8.38,1111122 
DISL,ioos:station:DISL:MHPA:1,2010-12-06T20:30:00Z,30.6671,-87.9365,8.33,1111122 
DISL,ioos:station:DISL:MHPA:1,2010-12-06T21:00:00Z,30.6671,-87.9365,8.71,1111122 
DISL,ioos:station:DISL:MHPA:1,2010-12-06T21:30:00Z,30.6671,-87.9365,8.65,1111122 
DISL,ioos:station:DISL:MHPA:1,2010-12-06T22:00:00Z,30.6671,-87.9365,8.08,1111122 
DISL,ioos:station:DISL:MHPA:1,2010-12-06T22:30:00Z,30.6671,-87.9365,7.55,1111122 
DISL,ioos:station:DISL:MHPA:1,2010-12-06T23:00:00Z,30.6671,-87.9365,6.672,1111122 
DISL,ioos:station:DISL:MHPA:1,2010-12-06T23:30:00Z,30.6671,-87.9365,6.055,1111122 
DISL,ioos:station:DISL:MHPA:1,2010-12-07T00:00:00Z,30.6671,-87.9365,5.795,1111122 
DISL,ioos:station:DISL:MHPA:1,2010-12-07T00:30:00Z,30.6671,-87.9365,5.687,1111122 
DISL,ioos:station:DISL:MHPA:1,2010-12-07T01:00:00Z,30.6671,-87.9365,5.207,1111122 
DISL,ioos:station:DISL:MHPA:1,2010-12-07T01:30:00Z,30.6671,-87.9365,4.835,1111122 
DISL,ioos:station:DISL:MHPA:1,2010-12-07T02:00:00Z,30.6671,-87.9365,4.574,1111122 
DISL,ioos:station:DISL:MHPA:1,2010-12-07T02:30:00Z,30.6671,-87.9365,4.324,1111122 
DISL,ioos:station:DISL:MHPA:1,2010-12-07T03:00:00Z,30.6671,-87.9365,4.01,1111122 
DISL,ioos:station:DISL:MHPA:1,2010-12-07T03:30:00Z,30.6671,-87.9365,3.667,1111122 
DISL,ioos:station:DISL:MHPA:1,2010-12-07T04:00:00Z,30.6671,-87.9365,3.218,1111122 
DISL,ioos:station:DISL:MHPA:1,2010-12-07T04:30:00Z,30.6671,-87.9365,2.608,1111122 
DISL,ioos:station:DISL:MHPA:1,2010-12-07T05:00:00Z,30.6671,-87.9365,2.218,1111122 
DISL,ioos:station:DISL:MHPA:1,2010-12-07T05:30:00Z,30.6671,-87.9365,1.943,1111122 
DISL,ioos:station:DISL:MHPA:1,2010-12-07T06:00:00Z,30.6671,-87.9365,1.543,1111122 
DISL,ioos:station:DISL:MHPA:1,2010-12-07T06:30:00Z,30.6671,-87.9365,1.59,1111122 
DISL,ioos:station:DISL:MHPA:1,2010-12-07T07:00:00Z,30.6671,-87.9365,1.363,1111122 
DISL,ioos:station:DISL:MHPA:1,2010-12-07T07:30:00Z,30.6671,-87.9365,0.851,1111122 
DISL,ioos:station:DISL:MHPA:1,2010-12-07T08:00:00Z,30.6671,-87.9365,0.566,1111122 
DISL,ioos:station:DISL:MHPA:1,2010-12-07T08:30:00Z,30.6671,-87.9365,0.319,1111122 
DISL,ioos:station:DISL:MHPA:1,2010-12-07T09:00:00Z,30.6671,-87.9365,0.29,1111122 
DISL,ioos:station:DISL:MHPA:1,2010-12-07T13:00:00Z,30.6671,-87.9365,0.337,1111122 
DISL,ioos:station:DISL:MHPA:1,2010-12-07T13:30:00Z,30.6671,-87.9365,1.248,1111122 
DISL,ioos:station:DISL:MHPA:1,2010-12-07T14:00:00Z,30.6671,-87.9365,1.951,1111122 
DISL,ioos:station:DISL:MHPA:1,2010-12-07T14:30:00Z,30.6671,-87.9365,2.692,1111122 
DISL,ioos:station:DISL:MHPA:1,2010-12-07T15:00:00Z,30.6671,-87.9365,3.503,1111122 
DISL,ioos:station:DISL:MHPA:1,2010-12-07T15:30:00Z,30.6671,-87.9365,5.072,1111122 
DISL,ioos:station:DISL:MHPA:1,2010-12-07T16:00:00Z,30.6671,-87.9365,6.562,1111122 
DISL,ioos:station:DISL:MHPA:1,2010-12-07T16:30:00Z,30.6671,-87.9365,6.631,1111122 
DISL,ioos:station:DISL:MHPA:1,2010-12-07T17:00:00Z,30.6671,-87.9365,7.42,1111122 
DISL,ioos:station:DISL:MHPA:1,2010-12-07T17:30:00Z,30.6671,-87.9365,7.93,1111122 
DISL,ioos:station:DISL:MHPA:1,2010-12-07T18:00:00Z,30.6671,-87.9365,8.11,1111122 
DISL,ioos:station:DISL:MHPA:1,2010-12-07T18:30:00Z,30.6671,-87.9365,9.14,1111122 
DISL,ioos:station:DISL:MHPA:1,2010-12-07T19:00:00Z,30.6671,-87.9365,9.65,1111122 
DISL,ioos:station:DISL:MHPA:1,2010-12-07T19:30:00Z,30.6671,-87.9365,9.88,1111122 
DISL,ioos:station:DISL:MHPA:1,2010-12-07T20:00:00Z,30.6671,-87.9365,10.37,1111122 
DISL,ioos:station:DISL:MHPA:1,2010-12-07T20:30:00Z,30.6671,-87.9365,11.02,1111122 
DISL,ioos:station:DISL:MHPA:1,2010-12-07T21:00:00Z,30.6671,-87.9365,11.46,1111122 
DISL,ioos:station:DISL:MHPA:1,2010-12-07T21:30:00Z,30.6671,-87.9365,11.25,1111122 
DISL,ioos:station:DISL:MHPA:1,2010-12-07T22:00:00Z,30.6671,-87.9365,11.27,1111122 
DISL,ioos:station:DISL:MHPA:1,2010-12-07T22:30:00Z,30.6671,-87.9365,10.36,1111122 
DISL,ioos:station:DISL:MHPA:1,2010-12-07T23:00:00Z,30.6671,-87.9365,9.08,1111122 
DISL,ioos:station:DISL:MHPA:1,2010-12-07T23:30:00Z,30.6671,-87.9365,9.21,1111122 
DISL,ioos:station:DISL:MHPA:1,2010-12-08T00:00:00Z,30.6671,-87.9365,9.31,1111122 
DISL,ioos:station:DISL:MHPA:1,2010-12-08T00:30:00Z,30.6671,-87.9365,9.37,1111122 
DISL,ioos:station:DISL:MHPA:1,2010-12-08T01:00:00Z,30.6671,-87.9365,7.32,1111122 
DISL,ioos:station:DISL:MHPA:1,2010-12-08T01:30:00Z,30.6671,-87.9365,6.468,1111122 
DISL,ioos:station:DISL:MHPA:1,2010-12-08T02:00:00Z,30.6671,-87.9365,6.102,1111122 
DISL,ioos:station:DISL:MHPA:1,2010-12-08T02:30:00Z,30.6671,-87.9365,4.872,1111122 
DISL,ioos:station:DISL:MHPA:1,2010-12-08T03:00:00Z,30.6671,-87.9365,4.823,1111122 
DISL,ioos:station:DISL:MHPA:1,2010-12-08T03:30:00Z,30.6671,-87.9365,4.323,1111122 
DISL,ioos:station:DISL:MHPA:1,2010-12-08T04:00:00Z,30.6671,-87.9365,4.219,1111122 
DISL,ioos:station:DISL:MHPA:1,2010-12-08T04:30:00Z,30.6671,-87.9365,4.132,1111122 
DISL,ioos:station:DISL:MHPA:1,2010-12-08T05:00:00Z,30.6671,-87.9365,3.779,1111122 